FW5717 Weather Reports


Display with metric or nautical units.
time (UTC)temp
F
wind
direction
speed
MPH
gust
MPH
rain 1hr
in
rain 24hr
in
rain mn
in
humidity
%
barometer
mb
20260502151530 51 0.0 0.0 0.00 0.00 0.00 47 1020.0
20260502123030 39 0.0 0.0 0.00 0.00 0.00 55 1019.7
20260502121535 39 0.0 0.0 0.00 0.00 0.00 53 1019.8
20260502114531 41 0.0 0.0 0.00 0.00 0.00 53 1019.7
20260502113036 41 0.0 0.0 0.00 0.00 0.00 52 1019.8
20260502111530 42 0.0 0.0 0.00 0.00 0.00 50 1019.7
20260502110034 43 0.0 0.0 0.00 0.00 0.00 48 1019.8
20260502104531 44 0.0 0.0 0.00 0.00 0.00 45 1019.8
20260502103056 45 0.0 0.0 0.00 0.00 0.00 44 1019.7
20260502101547 46 0.0 0.0 0.00 0.00 0.00 42 1019.5
20260502091530 43 0.0 0.0 0.00 0.00 0.00 50 1019.4
20260502071535 46 0.0 0.0 0.00 0.00 0.00 44 1019.6
20260502070033 45 0.0 0.0 0.00 0.00 0.00 52 1019.6
20260502064537 45 0.0 0.0 0.00 0.00 0.00 53 1019.6
20260502063044 45 0.0 0.0 0.00 0.00 0.00 53 1019.5
20260502061534 46 0.0 0.0 0.00 0.00 0.00 54 1019.6
20260502060034 46 0.0 0.0 0.00 0.00 0.00 53 1019.5
20260502054549 46 0.0 0.0 0.00 0.00 0.00 53 1019.6
20260502053037 46 0.0 0.0 0.00 0.00 0.00 56 1019.5
20260502051534 47 0.0 0.0 0.00 0.00 0.00 53 1019.5
20260502050030 48 0.0 0.0 0.00 0.00 0.00 51 1019.5
20260502044535 48 0.0 0.0 0.00 0.00 0.00 51 1019.4
20260502043034 48 0.0 0.0 0.00 0.00 0.00 51 1019.4
20260502041537 49 0.0 0.0 0.00 0.00 0.00 50 1019.4
20260502040033 50 0.0 0.0 0.00 0.00 0.00 47 1019.2
20260502034530 52 0.0 0.0 0.00 0.00 0.00 44 1019.0
20260502033040 53 0.0 0.0 0.00 0.00 0.00 40 1018.9
20260502031535 54 0.0 0.0 0.00 0.00 0.00 37 1018.7
20260502030043 56 0.0 0.0 0.00 0.00 0.00 36 1018.5
20260502024534 58 0.0 0.0 0.00 0.00 0.00 33 1018.2
20260502023030 60 0.0 0.0 0.00 0.00 0.00 34 1018.1
20260502021531 61 0.0 0.0 0.00 0.00 0.00 32 1017.9
20260502020030 61 0.0 0.0 0.00 0.00 0.00 31 1017.8
20260502014536 62 0.0 0.0 0.00 0.00 0.00 31 1017.5
20260502013033 63 0.0 0.0 0.00 0.00 0.00 30 1017.4
20260502011532 63 0.0 0.0 0.00 0.00 0.00 29 1017.4
20260502010030 63 0.0 0.0 0.00 0.00 0.00 29 1017.4
20260502004532 64 0.0 0.0 0.00 0.00 0.00 28 1017.4
20260502003031 65 0.0 0.0 0.00 0.00 0.00 28 1017.4
20260502001534 66 0.0 0.0 0.00 0.00 0.00 28 1017.4
20260502000033 67 0.0 0.0 0.00 0.00 0.00 27 1017.6
20260501234534 67 0.0 0.0 0.00 0.00 0.00 26 1017.5
20260501233046 69 0.0 0.0 0.00 0.00 0.00 24 1017.6
20260501231535 69 0.0 0.0 0.00 0.00 0.00 25 1017.6
20260501230034 69 0.0 0.0 0.00 0.00 0.00 23 1017.7
20260501224535 71 0.0 0.0 0.00 0.00 0.00 23 1017.6
20260501223039 70 0.0 0.0 0.00 0.00 0.00 24 1017.8
20260501221533 70 0.0 0.0 0.00 0.00 0.00 22 1017.9
20260501220035 70 0.0 0.0 0.00 0.00 0.00 22 1018.1
20260501214535 71 0.0 0.0 0.00 0.00 0.00 22 1018.2
20260501213033 70 0.0 0.0 0.00 0.00 0.00 21 1018.3
20260501211547 69 0.0 0.0 0.00 0.00 0.00 22 1018.4
20260501210038 70 0.0 0.0 0.00 0.00 0.00 21 1018.4
20260501204532 70 0.0 0.0 0.00 0.00 0.00 21 1018.6
20260501203033 71 0.0 0.0 0.00 0.00 0.00 18 1018.4
20260501201533 71 0.0 0.0 0.00 0.00 0.00 18 1018.7
20260501200033 70 0.0 0.0 0.00 0.00 0.00 18 1018.7
20260501194533 69 0.0 0.0 0.00 0.00 0.00 20 1018.6
20260501193034 68 0.0 0.0 0.00 0.00 0.00 20 1018.8
20260501191533 68 0.0 0.0 0.00 0.00 0.00 19 1018.9
20260501190030 69 0.0 0.0 0.00 0.00 0.00 20 1018.9
20260501184529 68 0.0 0.0 0.00 0.00 0.00 21 1019.1
20260501183031 68 0.0 0.0 0.00 0.00 0.00 22 1019.2
20260501181533 66 0.0 0.0 0.00 0.00 0.00 24 1019.4
20260501180036 64 0.0 0.0 0.00 0.00 0.00 24 1019.5
20260501174533 62 0.0 0.0 0.00 0.00 0.00 25 1019.5
20260501173035 61 0.0 0.0 0.00 0.00 0.00 27 1019.7
20260501171535 60 0.0 0.0 0.00 0.00 0.00 29 1019.8
20260501170038 59 0.0 0.0 0.00 0.00 0.00 30 1019.9
20260501164529 58 0.0 0.0 0.00 0.00 0.00 30 1019.8
20260501163030 57 0.0 0.0 0.00 0.00 0.00 31 1019.7
20260501161530 57 0.0 0.0 0.00 0.00 0.00 32 1019.7
20260501160036 56 0.0 0.0 0.00 0.00 0.00 33 1019.5
20260501154534 55 0.0 0.0 0.00 0.00 0.00 39 1019.6
20260501153032 53 0.0 0.0 0.00 0.00 0.00 37 1019.7